SCP
0 0 0 0 0 0 0 0 0 0 0 0 0 0 0 0 0 0 0 0 0 1 1 1 1 0 0 0 0 0 0 1 1 1 1 1 1 1 1 0 0 0 0 0 0 0 0 0 0
0 0 0 0 0 0 0 0 0 0 0 0 0 0 0 0 0 0 0 0 0 1 1 1 1 0 0 0 0 0 0 1 1 1 1 1 1 1 1 0 0 0 0 0 0 0 0 0 0
0 0 0 0 0 0 0 0 0 0 0 0 0 0 0 0 0 0 0 0 0 1 1 1 1 0 0 0 0 0 1 1 1 1 1 1 1 1 1 0 0 0 0 0 0 0 0 0 0
0 0 0 0 0 0 0 0 0 0 0 0 0 0 0 0 0 0 0 0 0 0 1 1 1 0 0 0 0 0 1 1 1 1 1 1 1 1 1 0 0 0 0 0 0 0 0 0 0
0 0 0 0 0 0 0 0 0 0 0 0 0 0 0 0 0 0 0 0 0 0 1 1 1 1 1 1 1 1 1 1 1 1 1 1 1 1 1 1 1 1 1 1 1 1 1 1 1
0 0 0 0 0 0 0 0 0 0 0 0 0 0 0 0 1 1 1 1 0 0 1 1 2 2 2 2 2 2 1 1 1 1 1 1 1 1 1 1 1 1 1 1 1 1 1 1 1
0 0 0 0 0 0 0 0 0 0 0 0 0 0 0 1 1 1 1 1 1 1 1 1 2 2 2 2 2 2 2 2 1 1 1 1 1 1 1 1 1 1 1 1 1 1 1 1 1
0 0 0 0 0 0 0 0 0 0 0 0 0 0 1 1 2 2 2 2 2 1 1 2 2 2 2 2 2 3 3 2 2 2 1 1 1 1 1 1 1 1 1 1 2 2 2 2 2
0 0 0 0 0 0 0 0 0 0 0 1 1 1 1 2 2 3 3 3 2 2 2 2 2 2 2 2 3 3 3 3 3 2 2 2 2 1 1 1 1 1 1 1 1 2 2 2 2
0 0 0 0 0 0 0 0 0 1 1 1 1 1 1 2 2 3 3 3 3 3 3 3 3 3 3 3 3 4 4 4 4 3 3 3 3 2 2 2 2 2 2 2 2 2 2 1 1
0 0 0 0 0 0 0 0 1 1 1 1 1 1 2 2 2 3 3 3 3 3 3 3 3 3 3 4 4 4 5 5 4 5 5 5 4 3 3 3 3 3 2 2 2 2 2 2 1
0 0 0 0 0 0 0 0 1 1 1 1 2 2 3 3 3 3 4 4 3 3 2 3 3 3 4 4 4 4 4 5 5 6 6 5 5 4 4 4 4 3 3 3 3 2 2 2 2
0 0 0 0 0 0 0 1 1 1 2 2 2 3 3 3 4 4 4 4 4 3 3 3 3 3 4 4 4 4 4 4 5 6 6 5 5 5 4 4 4 4 3 3 3 3 2 2 2
0 0 0 0 0 0 1 1 1 2 2 2 3 3 3 3 3 4 4 4 3 3 3 3 3 3 3 4 4 3 3 3 4 5 5 5 6 6 5 4 4 4 3 3 3 3 3 2 2
0 0 0 0 0 0 1 1 1 1 2 2 2 2 3 3 3 3 3 3 3 3 3 3 2 2 2 3 3 3 2 3 3 5 5 5 5 6 6 5 4 3 3 3 3 3 3 2 2
0 0 0 0 0 0 0 1 1 1 1 1 1 1 2 2 2 2 2 2 3 3 3 3 2 2 2 2 2 2 2 2 3 5 6 5 5 6 6 5 4 4 3 3 3 3 2 2 2
0 0 0 0 0 0 0 1 1 1 1 1 1 1 1 1 1 1 1 1 2 2 2 3 2 2 2 2 2 2 2 2 3 4 4 4 4 4 5 5 4 3 3 3 3 3 2 2 2
0 0 0 0 0 1 1 1 1 1 1 1 1 1 1 1 1 1 1 1 1 1 2 2 2 2 1 1 1 2 2 2 2 2 3 3 3 3 4 4 3 3 3 3 3 3 2 2 2
0 0 0 0 1 1 1 1 1 1 1 1 0 1 1 1 1 1 1 1 1 1 1 1 1 1 1 1 1 2 2 2 2 2 2 1 1 2 2 3 3 2 2 2 2 2 2 2 2
0 0 0 0 1 1 1 1 1 1 1 0 0 0 0 0 0 1 1 1 1 0 0 1 1 1 1 1 1 1 2 2 1 1 1 1 1 1 1 2 2 2 2 2 2 2 2 2 1
0 0 0 0 1 1 1 1 1 1 0 0 0 0 0 0 0 0 0 0 0 0 0 0 0 0 0 1 1 1 1 1 1 1 1 1 1 1 1 1 2 2 2 2 2 2 2 1 1
0 0 0 0 0 0 0 1 1 1 1 0 0 0 0 0 0 0 0 1 0 0 0 0 1 1 1 0 0 0 0 1 1 1 0 0 0 1 1 1 1 2 2 2 2 2 2 1 1
0 0 0 0 0 0 0 1 1 1 1 0 0 0 0 0 0 0 1 0 0 0 0 0 0 1 1 1 1 0 0 0 0 0 0 0 0 0 1 1 1 2 2 2 2 2 1 1 1
0 0 0 0 0 0 0 1 1 1 1 1 0 0 0 0 0 0 0 0 0 0 0 0 0 1 1 1 1 1 0 0 0 0 0 0 0 0 0 1 1 1 2 2 2 2 2 1 1
0 0 0 0 0 0 1 1 1 1 1 1 0 0 0 0 0 0 0 0 0 0 0 0 0 0 0 0 0 0 1 0 0 0 0 0 0 0 0 0 1 1 1 1 1 1 2 2 2
0 0 0 0 0 0 1 1 1 1 1 0 0 0 0 0 0 0 0 0 0 0 0 0 0 0 0 0 0 0 1 1 1 1 1 0 0 0 0 0 0 1 1 1 1 1 2 2 2
0 0 0 0 0 0 1 1 1 1 0 0 0 0 0 0 0 0 0 0 0 0 0 0 0 0 0 0 0 0 0 1 1 1 1 1 1 0 0 0 0 0 0 1 1 1 1 2 2
0 0 0 0 0 0 0 1 1 1 0 0 0 0 0 0 0 0 0 0 0 0 0 0 0 0 0 0 0 0 0 0 1 1 1 1 1 1 0 0 0 0 0 0 1 1 1 1 1
0 0 0 0 0 0 0 0 0 0 0 0 0 0 0 0 0 0 0 0 0 0 0 0 0 0 0 0 0 0 0 0 0 0 1 1 1 1 1 0 0 0 0 0 0 1 1 1 1
0 0 0 0 0 0 0 0 0 0 0 0 0 0 0 0 0 0 0 0 0 0 0 0 0 0 0 0 0 0 0 0 0 0 0 1 1 1 1 0 0 0 0 0 0 0 0 1 1
Wind_Speed
17 14 8 6 8 6 6 6 5 5 4 4 2 3 5 6 8 7 6 9 14 17 19 19 16 15 14 12 11 11 10 10 11 12 12 12 12 12 12 11 11 11 10 9 9 8 8 8 8
12 10 7 7 8 4 7 7 6 6 5 3 1 3 4 4 6 5 7 11 15 17 18 17 17 15 14 12 11 11 10 10 10 11 11 12 11 11 11 11 10 10 10 9 9 8 8 8 8
10 8 7 7 3 7 7 8 7 4 1 2 2 2 4 7 5 5 9 14 16 16 16 17 17 15 14 12 11 11 10 10 10 10 10 10 10 10 10 10 10 10 10 9 9 8 9 9 8
6 7 7 8 4 7 6 7 6 4 2 1 2 3 6 8 5 8 13 14 16 16 15 18 16 15 14 13 11 11 10 10 10 10 10 10 10 10 11 10 10 10 10 10 9 9 9 10 9
7 7 9 5 4 6 5 6 5 5 4 3 2 4 8 8 9 12 13 13 14 15 14 17 15 14 13 12 11 11 10 10 10 10 10 10 11 11 11 11 11 11 10 10 10 10 10 10 10
6 6 8 4 4 4 6 6 5 5 5 4 2 5 9 8 10 12 12 11 13 13 13 16 14 13 12 11 11 10 10 10 10 10 10 10 10 10 11 11 11 11 11 10 10 10 10 10 11
7 6 7 6 4 3 8 9 8 7 6 6 4 4 10 10 11 12 12 10 11 12 12 13 14 13 12 11 11 10 10 10 11 11 11 10 10 10 10 10 11 11 10 10 10 10 10 10 11
6 7 8 5 4 4 9 9 9 9 8 6 4 4 7 12 13 14 13 12 10 10 10 10 10 11 11 12 12 11 11 11 12 12 12 12 12 12 11 11 11 11 11 10 10 11 11 11 12
6 8 9 4 4 6 10 11 10 5 4 7 8 8 8 16 16 15 14 13 12 10 9 9 10 9 9 9 11 12 12 12 13 13 14 13 12 13 12 15 12 12 13 13 13 13 13 13 13
7 9 6 4 5 8 9 9 11 6 7 9 8 8 9 13 14 15 15 14 14 13 11 9 9 9 9 7 7 8 9 10 11 10 12 11 10 9 10 9 13 14 15 15 15 15 14 14 11
7 8 5 5 6 7 7 5 10 8 8 12 10 3 8 10 10 11 12 12 12 12 11 10 8 7 7 5 5 5 5 6 9 11 11 9 9 8 9 7 9 12 15 13 13 14 12 12 10
7 6 6 6 6 6 5 3 7 13 11 11 8 6 7 7 7 8 8 9 9 9 8 7 5 3 3 4 3 4 5 5 7 8 11 9 7 8 8 7 8 8 7 9 9 8 12 12 12
8 4 3 4 3 3 4 7 8 12 11 11 11 11 10 9 8 8 8 7 6 5 3 1 1 2 3 4 5 5 6 7 8 7 9 10 9 9 9 7 8 9 8 9 10 11 12 12 12
2 2 1 3 5 7 10 10 8 10 10 12 14 14 13 12 12 10 9 7 7 5 5 5 5 5 6 5 5 6 7 7 9 8 10 11 10 9 9 9 9 9 9 8 9 11 10 10 10
5 5 8 6 4 6 6 11 9 8 8 11 12 12 13 13 12 11 9 8 7 6 6 6 6 7 7 7 8 7 7 8 8 8 10 11 11 10 9 7 8 8 8 9 9 11 10 10 10
8 9 8 7 2 3 6 7 8 6 8 10 10 10 11 11 11 10 8 7 7 6 6 6 6 7 8 8 8 7 7 7 7 8 8 10 11 10 8 7 7 7 6 7 8 8 9 9 9
8 4 6 8 6 2 4 9 7 6 8 9 9 9 9 9 9 8 7 6 6 6 5 6 7 7 8 8 6 6 6 6 6 6 6 6 8 8 6 5 5 5 6 6 8 7 7 8 9
1 1 4 7 7 8 10 10 8 7 8 8 7 7 8 9 8 7 6 5 5 5 5 6 6 7 8 6 6 5 5 5 5 5 5 5 5 5 4 4 4 6 6 6 6 7 7 7 7
3 2 4 8 5 7 11 10 8 6 7 7 7 7 8 8 7 6 5 5 5 5 5 6 8 8 7 7 8 8 7 6 6 5 7 7 6 5 4 4 4 6 6 6 7 6 8 7 5
4 4 6 8 6 5 10 10 8 6 7 6 6 7 7 6 6 5 5 5 6 6 6 6 7 8 8 7 6 6 7 6 5 6 6 8 8 6 4 5 5 5 5 6 6 6 6 6 5
5 4 3 8 8 8 11 10 8 8 7 6 6 5 5 5 4 4 4 4 5 6 7 7 8 8 8 8 7 7 6 6 5 7 6 8 9 8 6 5 5 5 6 6 6 6 8 7 6
3 1 2 10 11 8 10 5 9 8 7 6 5 5 4 3 2 3 4 5 6 7 7 8 8 9 8 9 8 10 8 8 7 6 6 7 7 7 7 6 6 5 6 6 7 7 6 8 7
3 1 4 9 9 5 7 5 9 7 6 6 4 3 1 0 2 4 5 7 8 9 9 9 9 9 10 9 9 9 10 8 7 7 6 6 5 5 6 6 5 5 5 6 7 6 8 7 8
2 3 5 8 9 7 3 5 7 5 3 4 4 3 2 3 4 6 7 8 9 9 9 9 10 10 11 11 11 11 11 11 11 10 9 7 5 4 4 5 4 5 5 5 6 7 9 9 9
4 7 6 7 7 2 4 3 7 5 2 1 2 3 3 5 6 8 10 10 10 11 11 11 12 12 12 12 12 12 12 12 13 12 10 9 8 6 4 4 3 4 4 5 6 7 9 9 10
3 7 7 8 6 1 5 3 7 4 1 2 3 4 5 6 8 10 11 11 11 11 12 12 13 13 13 13 12 12 13 11 11 11 11 11 10 9 7 6 6 5 5 6 5 6 8 8 10
2 3 6 7 6 5 3 7 7 4 2 3 4 5 6 7 9 11 12 11 11 12 13 13 13 14 14 14 14 13 13 12 13 13 13 12 10 10 11 10 9 8 7 6 6 6 7 7 9
6 4 4 6 6 6 2 4 4 4 1 2 4 6 7 9 11 13 13 12 12 13 14 14 14 14 15 15 14 12 14 14 14 14 14 14 14 13 13 13 12 11 10 8 7 7 7 7 8
3 3 5 4 6 8 7 4 6 3 3 5 6 7 9 12 14 13 13 12 14 15 15 15 15 15 15 15 14 14 14 15 15 14 14 14 14 14 14 14 14 13 13 11 10 10 8 8 8
6 6 6 6 4 5 8 4 7 2 3 5 8 9 12 13 14 14 14 14 15 16 16 16 16 16 16 15 15 15 15 15 15 16 15 15 14 14 15 15 15 15 15 14 13 12 11 10 10
Wind_Direction
162 169 186 209 234 226 44 42 16 16 24 21 352 298 324 334 341 17 72 135 143 145 143 152 156 160 160 157 152 149 149 152 155 158 160 160 161 162 163 165 167 167 167 162 153 147 144 141 137
165 171 205 233 263 18 52 30 18 20 13 349 280 269 298 11 32 62 112 135 148 146 146 153 152 159 160 158 155 153 152 153 155 158 161 163 163 165 168 171 173 174 175 170 164 160 155 149 146
169 206 249 249 299 16 23 22 13 5 4 311 332 344 3 29 51 80 117 143 150 145 146 143 153 159 160 160 159 158 158 158 161 164 168 170 172 175 177 180 182 184 184 180 177 175 167 160 157
194 219 236 255 355 45 18 11 2 347 56 50 333 74 75 40 41 98 128 147 147 145 150 141 156 158 161 162 163 164 165 167 171 174 178 181 184 186 188 189 191 193 191 188 185 184 175 169 167
237 253 250 251 40 44 27 14 357 347 15 32 7 67 80 65 81 113 134 144 146 150 149 143 155 158 162 166 168 170 172 176 182 185 188 192 194 195 197 197 199 200 198 193 190 189 181 177 176
238 252 272 309 39 34 34 21 348 1 18 35 31 77 85 100 109 122 132 144 146 150 149 139 154 160 163 168 172 176 180 185 191 196 200 203 204 204 205 205 208 208 203 198 195 194 191 188 188
268 276 292 310 336 28 18 1 1 358 26 41 14 74 109 114 119 126 128 136 143 149 146 147 161 164 167 171 178 183 188 193 198 203 206 210 214 215 216 216 217 216 212 209 205 205 204 202 201
273 274 268 277 305 356 9 360 13 4 34 40 7 39 107 132 135 131 130 132 135 144 149 154 168 168 177 178 182 190 196 200 204 209 213 215 219 222 224 225 219 224 223 222 221 221 220 216 213
250 256 268 293 323 338 357 352 5 9 46 56 40 30 86 134 142 140 136 136 141 150 157 162 163 169 183 191 179 193 202 207 210 211 213 218 225 221 214 223 218 225 231 232 231 229 228 225 220
237 259 281 336 323 325 340 352 353 344 33 32 37 64 114 145 154 153 149 149 154 158 164 168 174 177 189 198 193 207 214 210 220 226 216 216 226 235 234 210 213 226 233 236 236 236 233 232 228
235 268 298 290 310 320 320 1 14 358 22 5 353 83 141 152 160 154 151 156 155 161 169 176 181 190 202 206 217 223 231 230 229 233 233 234 234 233 235 227 214 223 229 233 230 229 231 229 231
242 256 275 293 319 318 323 360 41 38 22 4 20 79 114 129 132 136 140 144 150 161 171 182 183 203 255 281 262 248 249 247 246 237 235 236 235 236 234 233 235 230 227 230 237 235 232 232 231
236 259 296 318 332 65 82 78 69 44 35 39 55 69 80 91 99 100 104 116 127 137 145 162 335 326 327 316 302 290 280 275 266 262 250 244 241 239 236 235 236 237 236 232 233 240 239 236 234
265 272 28 54 101 110 100 81 66 45 49 57 60 61 63 66 67 69 67 64 60 48 28 359 337 331 327 313 302 293 288 278 273 265 257 251 247 244 240 237 238 240 239 242 244 246 248 244 240
253 210 135 79 125 148 138 74 52 50 65 68 66 63 60 58 58 55 52 49 46 37 19 359 341 335 326 314 305 298 293 287 280 274 268 258 250 243 237 240 242 244 242 239 241 246 247 246 242
214 202 148 77 69 178 225 84 56 57 74 67 65 65 63 57 57 54 52 48 42 33 21 7 349 340 332 324 312 303 301 299 290 282 274 263 254 244 238 236 245 250 250 244 240 239 241 240 240
197 179 116 100 49 138 107 92 69 64 78 73 66 66 68 67 60 56 53 52 43 34 19 8 0 352 346 337 326 313 305 299 300 294 281 276 268 254 239 237 248 257 252 247 249 239 239 243 240
122 155 110 91 68 98 99 99 82 74 78 79 79 78 76 72 65 62 59 58 51 39 26 14 14 12 355 352 340 329 324 321 322 327 317 302 285 278 267 252 254 258 251 247 246 250 241 247 246
310 275 107 104 108 94 104 102 92 90 90 91 91 89 87 83 85 79 72 64 60 45 32 23 16 16 4 3 351 346 341 335 337 342 349 339 328 306 283 269 262 258 252 250 252 245 237 237 236
235 223 132 120 132 130 123 111 106 98 92 91 98 100 98 95 89 78 68 60 45 36 21 12 10 7 358 1 343 337 334 330 338 342 350 349 343 335 311 293 276 266 267 255 253 245 258 248 223
230 260 162 149 150 156 148 135 134 125 122 119 112 107 98 87 76 65 47 35 24 17 5 0 353 347 349 342 333 338 331 328 349 351 356 354 347 348 345 325 306 288 271 257 249 243 243 254 237
246 8 194 164 184 178 218 173 145 145 143 137 134 132 115 95 64 30 5 1 356 352 348 346 339 335 332 324 331 333 328 331 338 333 344 341 348 352 353 344 332 311 288 271 254 240 246 249 248
20 20 199 193 221 195 205 227 139 164 166 155 152 149 135 24 338 338 336 337 337 337 337 337 335 329 325 319 310 304 308 316 316 320 322 320 333 341 350 349 340 328 306 293 276 264 248 243 248
131 165 175 208 227 222 183 241 144 155 154 157 173 194 249 297 310 318 322 325 327 328 330 332 332 328 324 316 309 300 300 300 302 302 305 304 308 310 325 327 332 320 315 306 289 270 249 247 249
233 250 243 226 225 183 148 218 99 101 107 213 229 236 268 291 303 314 320 324 324 326 328 327 326 324 321 315 308 301 297 293 286 285 290 292 293 290 287 294 295 301 301 297 293 282 271 253 243
321 295 300 303 309 112 171 140 104 103 124 253 265 275 282 296 314 320 322 320 320 322 325 325 326 322 319 315 311 305 297 290 290 292 295 291 286 287 287 269 260 258 264 274 278 280 275 266 253
310 345 340 294 291 289 141 122 135 162 199 244 266 280 292 309 317 320 321 318 321 322 323 323 322 319 318 317 314 302 298 297 296 296 285 281 281 279 273 264 256 250 246 250 258 263 272 276 265
22 353 302 309 321 307 271 184 140 147 306 290 289 298 308 315 317 322 322 320 321 319 320 320 318 318 315 313 313 312 311 304 298 292 291 290 287 281 275 268 262 254 244 235 236 247 251 260 266
27 34 347 335 341 321 322 51 83 28 341 318 311 314 320 321 323 324 322 322 320 319 321 321 320 318 316 316 315 311 307 305 301 294 289 286 283 281 273 266 260 255 249 240 233 239 239 244 254
48 22 354 335 351 318 308 54 106 18 323 306 309 318 322 322 322 321 322 321 320 321 321 320 319 316 315 315 312 308 306 303 300 297 297 293 285 278 272 266 259 254 250 243 236 236 237 237 241